TimeEDT,TemperatureF,Dew PointF,Humidity,Sea Level PressureIn,VisibilityMPH,Wind Direction,Wind SpeedMPH,Gust SpeedMPH,PrecipitationIn,Events,Conditions,WindDirDegrees,DateUTC
12:15 AM,44.6,42.1,91,30.07,1.2,Calm,Calm,-,N/A,,Mist,0,2013-10-08 04:15:00
12:35 AM,43.0,40.5,91,30.08,0.8,Calm,Calm,-,N/A,,Mist,0,2013-10-08 04:35:00
12:55 AM,43.3,41.0,91,30.08,-9999.0,Calm,Calm,-,N/A,,Unknown,0,2013-10-08 04:55:00
1:15 AM,42.4,40.3,92,30.09,0.5,Calm,Calm,-,N/A,Fog,Fog,0,2013-10-08 05:15:00
1:35 AM,43.2,40.8,91,30.09,10.0,Calm,Calm,-,N/A,,Clear,0,2013-10-08 05:35:00
1:55 AM,42.3,40.1,92,30.10,4.0,Calm,Calm,-,N/A,,Clear,0,2013-10-08 05:55:00
2:15 AM,41.0,38.5,91,30.10,7.0,Calm,Calm,-,N/A,,Clear,0,2013-10-08 06:15:00
2:35 AM,41.0,38.7,91,30.11,4.0,Calm,Calm,-,N/A,,Clear,0,2013-10-08 06:35:00
2:55 AM,41.0,38.5,91,30.11,1.5,Calm,Calm,-,N/A,,Mist,0,2013-10-08 06:55:00
3:15 AM,41.4,39.2,92,30.11,10.0,Calm,Calm,-,N/A,,Clear,0,2013-10-08 07:15:00
3:35 AM,41.9,39.9,93,30.11,1.2,Calm,Calm,-,N/A,,Mist,0,2013-10-08 07:35:00
3:55 AM,43.2,41.0,92,30.12,5.0,Calm,Calm,-,N/A,,Clear,0,2013-10-08 07:55:00
4:15 AM,41.0,38.7,91,30.12,0.5,Calm,Calm,-,N/A,Fog,Fog,0,2013-10-08 08:15:00
4:35 AM,40.6,38.5,92,30.13,0.5,Calm,Calm,-,N/A,Fog,Fog,0,2013-10-08 08:35:00
4:55 AM,41.0,38.7,91,30.14,0.5,Calm,Calm,-,N/A,Fog,Fog,0,2013-10-08 08:55:00
5:15 AM,41.0,38.7,91,30.14,2.5,Calm,Calm,-,N/A,,Clear,0,2013-10-08 09:15:00
5:35 AM,41.0,38.7,91,30.14,7.0,East,3.5,-,N/A,,Clear,100,2013-10-08 09:35:00
5:55 AM,41.2,38.8,91,30.14,10.0,East,3.5,-,N/A,,Clear,80,2013-10-08 09:55:00
6:15 AM,41.0,38.7,91,30.15,5.0,East,3.5,-,N/A,,Clear,90,2013-10-08 10:15:00
6:35 AM,41.0,38.7,91,30.15,10.0,East,3.5,-,N/A,,Clear,100,2013-10-08 10:35:00
6:55 AM,42.1,40.1,93,30.16,10.0,East,3.5,-,N/A,,Clear,80,2013-10-08 10:55:00
7:15 AM,41.0,38.7,91,30.16,10.0,East,3.5,-,N/A,,Clear,90,2013-10-08 11:15:00
7:35 AM,41.0,38.7,91,30.17,10.0,East,3.5,-,N/A,,Clear,80,2013-10-08 11:35:00
7:55 AM,41.0,38.7,91,30.17,10.0,Calm,Calm,-,N/A,,Mostly Cloudy,0,2013-10-08 11:55:00
8:15 AM,41.2,39.2,93,30.18,10.0,East,3.5,-,N/A,,Scattered Clouds,90,2013-10-08 12:15:00
8:35 AM,43.3,41.2,92,30.19,10.0,Calm,Calm,-,N/A,,Scattered Clouds,0,2013-10-08 12:35:00
8:55 AM,47.3,45.1,92,30.19,10.0,Calm,Calm,-,N/A,,Scattered Clouds,0,2013-10-08 12:55:00
9:15 AM,50.9,48.6,92,30.19,10.0,ESE,4.6,-,N/A,,Scattered Clouds,120,2013-10-08 13:15:00
9:35 AM,50.9,48.6,92,30.19,10.0,SE,4.6,-,N/A,,Clear,140,2013-10-08 13:35:00
9:55 AM,53.6,49.6,86,30.19,10.0,SE,3.5,-,N/A,,Clear,130,2013-10-08 13:55:00
10:15 AM,56.3,49.3,77,30.19,10.0,SE,4.6,-,N/A,,Clear,140,2013-10-08 14:15:00
10:35 AM,58.5,47.1,66,30.19,10.0,SE,4.6,-,N/A,,Clear,140,2013-10-08 14:35:00
10:55 AM,61.0,47.7,62,30.19,10.0,SE,5.8,-,N/A,,Clear,140,2013-10-08 14:55:00
11:15 AM,61.5,47.8,61,30.19,10.0,SSE,5.8,-,N/A,,Clear,160,2013-10-08 15:15:00
11:35 AM,62.2,46.6,57,30.19,10.0,SSE,8.1,-,N/A,,Clear,160,2013-10-08 15:35:00
11:55 AM,64.2,47.3,54,30.19,10.0,South,9.2,-,N/A,,Clear,170,2013-10-08 15:55:00
12:15 PM,64.9,47.1,52,30.19,10.0,SSE,6.9,-,N/A,,Clear,150,2013-10-08 16:15:00
12:35 PM,66.2,46.9,50,30.18,10.0,South,8.1,-,N/A,,Clear,170,2013-10-08 16:35:00
12:55 PM,68.5,49.6,51,30.18,10.0,South,10.4,-,N/A,,Clear,170,2013-10-08 16:55:00
1:15 PM,67.6,49.5,52,30.18,10.0,South,8.1,-,N/A,,Clear,170,2013-10-08 17:15:00
1:35 PM,69.4,50.7,51,30.18,10.0,SSE,9.2,-,N/A,,Clear,160,2013-10-08 17:35:00
1:55 PM,71.1,50.9,49,30.17,10.0,SSW,10.4,16.1,N/A,,Clear,200,2013-10-08 17:55:00
2:15 PM,71.1,53.1,53,30.17,10.0,SW,10.4,-,N/A,,Clear,220,2013-10-08 18:15:00
2:35 PM,71.1,56.3,60,30.17,10.0,SW,11.5,-,N/A,,Clear,230,2013-10-08 18:35:00
2:55 PM,71.1,55.8,58,30.17,10.0,SW,10.4,-,N/A,,Clear,230,2013-10-08 18:55:00
3:15 PM,71.1,54.1,55,30.16,10.0,SSW,9.2,-,N/A,,Clear,210,2013-10-08 19:15:00
3:35 PM,71.1,54.0,55,30.17,10.0,WSW,9.2,-,N/A,,Clear,240,2013-10-08 19:35:00
3:55 PM,71.1,54.1,55,30.16,10.0,SW,9.2,-,N/A,,Clear,230,2013-10-08 19:55:00
4:15 PM,71.1,52.7,52,30.16,10.0,SW,9.2,-,N/A,,Clear,220,2013-10-08 20:15:00
4:35 PM,71.1,52.3,52,30.16,10.0,SSW,11.5,-,N/A,,Clear,210,2013-10-08 20:35:00
4:55 PM,71.1,51.4,50,30.15,10.0,South,9.2,-,N/A,,Clear,190,2013-10-08 20:55:00
5:15 PM,71.1,47.8,44,30.15,10.0,South,13.8,-,N/A,,Clear,180,2013-10-08 21:15:00
5:35 PM,71.1,48.0,44,30.15,10.0,South,11.5,-,N/A,,Clear,190,2013-10-08 21:35:00
5:55 PM,71.1,48.4,44,30.15,10.0,South,11.5,-,N/A,,Clear,180,2013-10-08 21:55:00
6:15 PM,71.1,49.1,46,30.15,10.0,SSW,8.1,-,N/A,,Clear,200,2013-10-08 22:15:00
6:35 PM,68.5,47.8,48,30.15,10.0,South,6.9,-,N/A,,Clear,190,2013-10-08 22:35:00
6:55 PM,65.8,48.0,53,30.16,10.0,South,3.5,-,N/A,,Clear,190,2013-10-08 22:55:00
7:15 PM,63.5,48.2,57,30.16,10.0,South,3.5,-,N/A,,Clear,170,2013-10-08 23:15:00
7:35 PM,63.3,48.6,59,30.16,10.0,South,3.5,-,N/A,,Clear,180,2013-10-08 23:35:00
7:55 PM,61.3,48.4,62,30.16,10.0,South,3.5,-,N/A,,Clear,180,2013-10-08 23:55:00
8:15 PM,61.0,49.1,65,30.16,10.0,SSE,3.5,-,N/A,,Clear,150,2013-10-09 00:15:00
8:35 PM,61.0,49.6,66,30.16,10.0,SSE,4.6,-,N/A,,Clear,160,2013-10-09 00:35:00
8:55 PM,61.0,49.1,65,30.17,10.0,SSE,5.8,-,N/A,,Clear,160,2013-10-09 00:55:00
9:15 PM,61.0,47.7,62,30.17,10.0,SSE,4.6,-,N/A,,Clear,150,2013-10-09 01:15:00
9:35 PM,60.3,46.9,61,30.17,10.0,Calm,Calm,-,N/A,,Clear,0,2013-10-09 01:35:00
9:55 PM,58.5,45.5,62,30.17,10.0,SE,3.5,-,N/A,,Clear,140,2013-10-09 01:55:00
10:15 PM,58.5,46.6,65,30.17,10.0,SE,4.6,-,N/A,,Clear,140,2013-10-09 02:15:00
10:35 PM,58.5,47.8,68,30.17,10.0,SE,4.6,-,N/A,,Clear,140,2013-10-09 02:35:00
10:55 PM,58.5,48.2,69,30.17,10.0,SE,5.8,-,N/A,,Clear,140,2013-10-09 02:55:00
11:15 PM,58.5,48.9,71,30.17,10.0,SE,5.8,-,N/A,,Clear,140,2013-10-09 03:15:00
11:35 PM,58.5,48.6,70,30.18,10.0,SE,4.6,-,N/A,,Clear,140,2013-10-09 03:35:00
11:55 PM,58.5,49.6,72,30.17,10.0,SE,6.9,-,N/A,,Clear,140,2013-10-09 03:55:00